Location: Aula-Vintri
(58.3875°N, 22.4322°E)
Time: 23:42:49
(UTC+00:00)

Meteor 2-1 Rocket - Pass Details

Date: 13 October 2019
Orbit: 829 x 908 km, 81.3° (Epoch: 14 November)

Event Time Altitude Azimuth Distance (km) Brightness Sun altitude
Exits shadow 19:22:02 69° 351° (N) 896 4.3 -29.5°
Drops below altitude 10° 19:26:58 10° 15° (NNE) 2,473 6.9 -30.0°
Sets 19:29:25 0° 16° (NNE) 3,421 7.6 -30.3°
